Time,TemperatureF,DewpointF,PressureIn,WindDirection,WindDirectionDegrees,WindSpeedMPH,WindSpeedGustMPH,Humidity,HourlyPrecipIn,Conditions,Clouds,dailyrainin,SoftwareType,DateUTC
2013-10-20 00:00:00,42.8,32.6,28.64,WNW,298,0.0,0.0,67,0.00,,BKN250,0.00,VWS V14.01,2013-10-20 05:00:00,
2013-10-20 00:15:00,43.5,33.7,28.64,WNW,298,0.0,0.0,68,0.00,,BKN250,0.00,VWS V14.01,2013-10-20 05:15:00,
2013-10-20 00:30:00,44.2,34.4,28.64,WNW,298,0.0,0.0,68,0.00,,BKN250,0.00,VWS V14.01,2013-10-20 05:30:00,
2013-10-20 00:45:00,45.0,35.0,28.64,WNW,298,0.0,0.0,68,0.00,,BKN250,0.00,VWS V14.01,2013-10-20 05:45:00,
2013-10-20 01:00:00,45.7,35.7,28.64,WNW,298,0.0,0.0,68,0.00,,BKN250,0.00,VWS V14.01,2013-10-20 06:00:00,
2013-10-20 01:15:00,45.9,35.5,28.64,WNW,298,0.0,0.0,67,0.00,,OVC100,0.00,VWS V14.01,2013-10-20 06:15:00,
2013-10-20 01:30:00,45.5,35.2,28.61,WNW,297,0.0,0.0,67,0.00,,OVC100,0.00,VWS V14.01,2013-10-20 06:30:00,
2013-10-20 01:45:00,45.5,35.2,28.61,WNW,298,0.0,0.0,67,0.00,,OVC100,0.00,VWS V14.01,2013-10-20 06:45:00,
2013-10-20 02:00:00,45.5,35.2,28.61,WNW,298,0.0,0.0,67,0.00,,OVC100,0.00,VWS V14.01,2013-10-20 07:00:00,
2013-10-20 02:15:00,45.1,34.8,28.61,WNW,298,0.0,0.0,67,0.00,,OVC100,0.00,VWS V14.01,2013-10-20 07:15:00,
2013-10-20 02:30:00,45.3,35.0,28.61,WNW,298,0.0,0.0,67,0.00,,OVC100,0.00,VWS V14.01,2013-10-20 07:30:00,
2013-10-20 02:45:00,45.5,35.2,28.61,WNW,298,0.0,0.0,67,0.00,,OVC100,0.00,VWS V14.01,2013-10-20 07:45:00,
2013-10-20 03:00:00,45.7,35.4,28.61,WNW,298,0.0,0.0,67,0.00,,OVC100,0.00,VWS V14.01,2013-10-20 08:00:00,
2013-10-20 03:15:00,45.1,34.8,28.59,WNW,298,0.0,0.0,67,0.00,,OVC100,0.00,VWS V14.01,2013-10-20 08:15:00,
2013-10-20 03:30:00,44.8,34.1,28.59,WNW,298,0.0,0.0,66,0.00,,OVC100,0.00,VWS V14.01,2013-10-20 08:30:00,
2013-10-20 03:45:00,43.7,33.1,28.59,WNW,298,0.0,0.0,66,0.00,,OVC100,0.00,VWS V14.01,2013-10-20 08:45:00,
2013-10-20 04:00:00,43.0,32.8,28.59,WNW,298,0.0,0.0,67,0.00,,OVC100,0.00,VWS V14.01,2013-10-20 09:00:00,
2013-10-20 04:15:00,43.5,33.7,28.59,WNW,298,0.0,0.0,68,0.00,,BKN250,0.00,VWS V14.01,2013-10-20 09:15:00,
2013-10-20 04:30:00,44.2,34.4,28.56,WNW,298,0.0,0.0,68,0.00,,BKN250,0.00,VWS V14.01,2013-10-20 09:30:00,
2013-10-20 04:45:00,44.1,34.2,28.56,WNW,298,0.0,0.0,68,0.00,,BKN250,0.00,VWS V14.01,2013-10-20 09:45:00,
2013-10-20 05:00:00,43.7,33.8,28.56,WNW,298,0.0,0.0,68,0.00,,BKN250,0.00,VWS V14.01,2013-10-20 10:00:00,
2013-10-20 05:15:00,44.1,34.6,28.56,WNW,298,0.0,0.0,69,0.00,,OVC250,0.00,VWS V14.01,2013-10-20 10:15:00,
2013-10-20 05:30:00,44.2,34.7,28.56,WNW,298,0.0,0.0,69,0.00,,OVC250,0.00,VWS V14.01,2013-10-20 10:30:00,
2013-10-20 05:45:00,44.2,34.7,28.56,WNW,298,0.0,0.0,69,0.00,,OVC250,0.00,VWS V14.01,2013-10-20 10:45:00,
2013-10-20 06:00:00,44.4,34.9,28.56,WNW,298,0.0,0.0,69,0.00,,OVC250,0.00,VWS V14.01,2013-10-20 11:00:00,
2013-10-20 06:15:00,44.4,34.9,28.56,WNW,298,0.0,0.0,69,0.00,,OVC110,0.00,VWS V14.01,2013-10-20 11:15:00,
2013-10-20 06:30:00,44.2,34.7,28.56,WNW,297,0.0,0.0,69,0.00,,OVC110,0.00,VWS V14.01,2013-10-20 11:30:00,
2013-10-20 06:45:00,44.2,34.4,28.56,West,279,0.0,0.0,68,0.00,,OVC110,0.00,VWS V14.01,2013-10-20 11:45:00,
2013-10-20 07:00:00,44.4,34.5,28.56,WNW,283,0.0,0.0,68,0.00,,OVC110,0.00,VWS V14.01,2013-10-20 12:00:00,
2013-10-20 07:15:00,44.8,34.5,28.56,West,275,0.0,0.0,67,0.00,,BKN110,0.00,VWS V14.01,2013-10-20 12:15:00,
2013-10-20 07:30:00,45.0,34.3,28.56,West,273,0.0,0.0,66,0.00,,BKN110,0.00,VWS V14.01,2013-10-20 12:30:00,
2013-10-20 07:45:00,45.1,34.1,28.59,West,272,0.0,0.0,65,0.00,,BKN110,0.00,VWS V14.01,2013-10-20 12:45:00,
2013-10-20 08:00:00,45.3,33.9,28.59,West,271,0.0,0.0,64,0.00,,BKN110,0.00,VWS V14.01,2013-10-20 13:00:00,
2013-10-20 08:15:00,45.5,33.7,28.59,West,268,0.0,0.0,63,0.00,,OVC250,0.00,VWS V14.01,2013-10-20 13:15:00,
2013-10-20 08:30:00,46.2,34.3,28.59,West,270,0.0,0.0,63,0.00,,OVC250,0.00,VWS V14.01,2013-10-20 13:30:00,
2013-10-20 08:45:00,47.3,35.0,28.59,West,267,0.0,0.0,62,0.00,,OVC250,0.00,VWS V14.01,2013-10-20 13:45:00,
2013-10-20 09:00:00,48.4,35.2,28.59,West,261,0.0,0.0,60,0.00,,OVC095,0.00,VWS V14.01,2013-10-20 14:00:00,
2013-10-20 09:15:00,49.3,35.1,28.61,WSW,248,0.0,0.0,58,0.00,,OVC095,0.00,VWS V14.01,2013-10-20 14:15:00,
2013-10-20 09:30:00,49.5,33.5,28.61,West,270,0.0,0.0,54,0.00,,OVC095,0.00,VWS V14.01,2013-10-20 14:30:00,
2013-10-20 09:45:00,50.0,32.1,28.61,ENE,75,0.0,2.7,50,0.00,,OVC095,0.00,VWS V14.01,2013-10-20 14:45:00,
2013-10-20 10:00:00,51.6,34.1,28.61,ESE,121,0.0,0.0,51,0.00,,OVC095,0.00,VWS V14.01,2013-10-20 15:00:00,
2013-10-20 10:15:00,52.9,33.7,28.61,NE,34,0.0,0.0,48,0.00,,OVC100,0.00,VWS V14.01,2013-10-20 15:15:00,
2013-10-20 10:30:00,54.3,34.5,28.61,NNW,338,0.0,0.0,47,0.00,,OVC100,0.00,VWS V14.01,2013-10-20 15:30:00,
2013-10-20 10:45:00,56.7,35.6,28.61,NNW,345,0.0,4.5,45,0.00,,OVC100,0.00,VWS V14.01,2013-10-20 15:45:00,
2013-10-20 11:00:00,57.4,36.2,28.61,North,7,0.0,2.7,45,0.00,,OVC100,0.00,VWS V14.01,2013-10-20 16:00:00,
2013-10-20 11:15:00,57.6,37.0,28.61,North,6,0.0,0.0,46,0.00,,OVC250,0.00,VWS V14.01,2013-10-20 16:15:00,
2013-10-20 11:30:00,57.9,35.6,28.61,East,94,0.0,0.0,43,0.00,,OVC250,0.00,VWS V14.01,2013-10-20 16:30:00,
2013-10-20 11:45:00,59.4,35.1,28.61,East,87,0.0,3.6,40,0.00,,OVC250,0.00,VWS V14.01,2013-10-20 16:45:00,
2013-10-20 12:00:00,59.5,33.9,28.61,East,82,0.0,3.1,38,0.00,,OVC250,0.00,VWS V14.01,2013-10-20 17:00:00,
2013-10-20 12:15:00,59.5,33.9,28.61,ENE,75,0.0,0.0,38,0.00,,OVC250,0.00,VWS V14.01,2013-10-20 17:15:00,
2013-10-20 12:30:00,60.1,34.4,28.61,ENE,61,0.0,0.0,38,0.00,,OVC250,0.00,VWS V14.01,2013-10-20 17:30:00,
2013-10-20 12:45:00,60.8,35.1,28.61,ENE,77,0.0,0.0,38,0.00,,OVC250,0.00,VWS V14.01,2013-10-20 17:45:00,
2013-10-20 13:00:00,62.8,35.5,28.61,North,9,0.0,0.0,36,0.00,,OVC250,0.00,VWS V14.01,2013-10-20 18:00:00,
2013-10-20 13:15:00,63.5,33.9,28.61,ENE,57,0.0,3.6,33,0.00,,OVC100,0.00,VWS V14.01,2013-10-20 18:15:00,
2013-10-20 13:30:00,63.5,33.9,28.61,East,97,3.1,5.1,33,0.00,,OVC100,0.00,VWS V14.01,2013-10-20 18:30:00,
2013-10-20 13:45:00,63.5,33.9,28.61,East,81,0.0,5.1,33,0.00,,OVC100,0.00,VWS V14.01,2013-10-20 18:45:00,
2013-10-20 14:00:00,63.9,34.2,28.61,North,357,0.0,4.5,33,0.00,,OVC100,0.00,VWS V14.01,2013-10-20 19:00:00,
2013-10-20 14:15:00,64.2,33.8,28.61,East,92,3.1,3.1,32,0.00,,OVC250,0.00,VWS V14.01,2013-10-20 19:15:00,
2013-10-20 14:30:00,63.7,32.5,28.61,East,99,0.0,6.0,31,0.00,,OVC250,0.00,VWS V14.01,2013-10-20 19:30:00,
2013-10-20 14:45:00,64.0,32.8,28.61,SE,132,0.0,6.9,31,0.00,,OVC250,0.00,VWS V14.01,2013-10-20 19:45:00,
2013-10-20 15:00:00,63.9,31.9,28.61,WNW,282,0.0,4.7,30,0.00,,OVC250,0.00,VWS V14.01,2013-10-20 20:00:00,
2013-10-20 15:15:00,64.4,31.5,28.61,WNW,302,0.0,6.5,29,0.00,,OVC250,0.00,VWS V14.01,2013-10-20 20:15:00,
2013-10-20 15:30:00,64.0,30.3,28.61,NW,311,3.1,8.7,28,0.00,,OVC250,0.00,VWS V14.01,2013-10-20 20:30:00,
2013-10-20 15:45:00,62.8,30.1,28.64,WNW,294,0.0,4.7,29,0.00,,OVC250,0.00,VWS V14.01,2013-10-20 20:45:00,
2013-10-20 16:00:00,63.3,30.5,28.64,East,96,3.1,5.6,29,0.00,,OVC250,0.00,VWS V14.01,2013-10-20 21:00:00,
2013-10-20 16:15:00,63.3,31.4,28.64,ESE,102,0.0,6.0,30,0.00,,BKN250,0.00,VWS V14.01,2013-10-20 21:15:00,
2013-10-20 16:30:00,62.8,30.1,28.64,WSW,256,0.0,4.5,29,0.00,,BKN250,0.00,VWS V14.01,2013-10-20 21:30:00,
2013-10-20 16:45:00,61.9,30.1,28.64,NNE,33,3.6,6.5,30,0.00,,BKN250,0.00,VWS V14.01,2013-10-20 21:45:00,
2013-10-20 17:00:00,61.5,29.0,28.64,East,99,0.0,8.9,29,0.00,,BKN250,0.00,VWS V14.01,2013-10-20 22:00:00,
2013-10-20 17:15:00,60.8,29.2,28.67,NNW,345,2.7,5.6,30,0.00,,BKN250,0.00,VWS V14.01,2013-10-20 22:15:00,
2013-10-20 17:30:00,60.3,28.7,28.67,NNE,26,0.0,6.9,30,0.00,,BKN250,0.00,VWS V14.01,2013-10-20 22:30:00,
2013-10-20 17:45:00,58.8,29.0,28.67,WNW,290,0.0,4.5,32,0.00,,BKN250,0.00,VWS V14.01,2013-10-20 22:45:00,
2013-10-20 18:00:00,57.9,29.0,28.70,East,85,0.0,6.0,33,0.00,,BKN250,0.00,VWS V14.01,2013-10-20 23:00:00,
2013-10-20 18:15:00,56.8,28.8,28.70,NE,40,0.0,4.7,34,0.00,,BKN250,0.00,VWS V14.01,2013-10-20 23:15:00,
2013-10-20 18:30:00,55.8,29.2,28.70,East,82,0.0,3.6,36,0.00,,BKN250,0.00,VWS V14.01,2013-10-20 23:30:00,
2013-10-20 18:45:00,54.5,28.8,28.73,ENE,58,0.0,5.6,37,0.00,,BKN250,0.00,VWS V14.01,2013-10-20 23:45:00,
2013-10-20 19:00:00,53.6,29.3,28.73,NE,56,0.0,5.1,39,0.00,,BKN250,0.00,VWS V14.01,2013-10-21 00:00:00,
2013-10-20 19:15:00,52.3,29.4,28.73,North,357,0.0,3.6,41,0.00,,BKN250,0.00,VWS V14.01,2013-10-21 00:15:00,
2013-10-20 19:30:00,51.6,29.9,28.73,ESE,103,0.0,5.6,43,0.00,,BKN250,0.00,VWS V14.01,2013-10-21 00:30:00,
2013-10-20 19:45:00,50.7,30.2,28.76,NNE,29,2.7,2.7,45,0.00,,BKN250,0.00,VWS V14.01,2013-10-21 00:45:00,
2013-10-20 20:00:00,50.4,30.4,28.76,NNE,28,0.0,9.4,46,0.00,,BKN250,0.00,VWS V14.01,2013-10-21 01:00:00,
2013-10-20 20:15:00,50.2,30.8,28.76,SW,227,0.0,7.4,47,0.00,,BKN250,0.00,VWS V14.01,2013-10-21 01:15:00,
2013-10-20 20:30:00,49.5,31.1,28.76,East,82,0.0,7.8,49,0.00,,BKN250,0.00,VWS V14.01,2013-10-21 01:30:00,
2013-10-20 20:45:00,48.7,31.0,28.76,NE,42,0.0,5.6,50,0.00,,BKN250,0.00,VWS V14.01,2013-10-21 01:45:00,
2013-10-20 21:00:00,48.4,31.6,28.79,NNE,25,0.0,3.1,52,0.00,,BKN250,0.00,VWS V14.01,2013-10-21 02:00:00,
2013-10-20 21:15:00,48.4,31.6,28.79,NE,40,0.0,3.6,52,0.00,,BKN250,0.00,VWS V14.01,2013-10-21 02:15:00,
2013-10-20 21:30:00,47.7,31.9,28.79,East,91,0.0,2.7,54,0.00,,BKN250,0.00,VWS V14.01,2013-10-21 02:30:00,
2013-10-20 21:45:00,46.8,31.0,28.79,ENE,76,0.0,2.7,54,0.00,,BKN250,0.00,VWS V14.01,2013-10-21 02:45:00,
2013-10-20 22:00:00,46.0,31.2,28.82,ESE,110,0.0,0.0,56,0.00,,BKN250,0.00,VWS V14.01,2013-10-21 03:00:00,
2013-10-20 22:15:00,45.3,29.7,28.82,East,81,0.0,2.7,54,0.00,,BKN250,0.00,VWS V14.01,2013-10-21 03:15:00,
2013-10-20 22:30:00,44.2,28.7,28.82,North,353,0.0,4.7,54,0.00,,BKN250,0.00,VWS V14.01,2013-10-21 03:30:00,
2013-10-20 22:45:00,43.5,28.0,28.85,East,83,4.0,5.1,54,0.00,,BKN250,0.00,VWS V14.01,2013-10-21 03:45:00,
2013-10-20 23:00:00,42.8,27.8,28.85,East,99,0.0,4.0,55,0.00,,BKN250,0.00,VWS V14.01,2013-10-21 04:00:00,
2013-10-20 23:15:00,42.8,28.6,28.85,NE,54,0.0,3.1,57,0.00,,BKN060,0.00,VWS V14.01,2013-10-21 04:15:00,
2013-10-20 23:30:00,41.9,28.6,28.85,ENE,69,0.0,3.6,59,0.00,,BKN060,0.00,VWS V14.01,2013-10-21 04:30:00,
2013-10-20 23:45:00,40.8,28.8,28.85,ENE,61,3.6,4.5,62,0.00,,BKN060,0.00,VWS V14.01,2013-10-21 04:45:00,